CALSPHERE 1 1 00900U 64063C 25340.52267900 .00001228 00000+0 12458-2 0 9997 2 00900 90.2214 67.3134 0027278 153.7200 225.1518 13.76355825 44925 CALSPHERE 2 1 00902U 64063E 25340.50470891 .00000092 00000+0 12428-3 0 9998 2 00902 90.2363 71.2520 0020332 69.3772 308.1044 13.52881982830218 LCS 1 1 01361U 65034C 25340.60704522 .00000015 00000+0 84744-3 0 9994 2 01361 32.1423 274.2852 0013454 160.8733 199.2271 9.89309418190814 TEMPSAT 1 1 01512U 65065E 25340.61115672 .00000096 00000+0 17188-3 0 9996 2 01512 89.9885 212.6744 0071334 69.9359 350.4804 13.33581598934380 CALSPHERE 4A 1 01520U 65065H 25340.40251545 .00000170 00000+0 31062-3 0 9992 2 01520 89.9093 124.2960 0068200 287.9283 100.6276 13.36237786936968 OPS 5712 (P/L 160) 1 02826U 67053A 25340.59839521 .00016930 00000+0 25728-2 0 9999 2 02826 69.9167 149.1313 0005125 290.6288 69.4308 14.74061835 37816 OPS 5712 (P/L 153) 1 02874U 67053H 25340.63536101 .00000102 00000+0 11202-3 0 9992 2 02874 69.9724 168.0152 0004414 83.5343 276.6265 13.96790094979896 RIGIDSPHERE 2 (LCS 4) 1 05398U 71067E 25340.61229999 .00001431 00000+0 46139-3 0 9991 2 05398 87.6218 32.2516 0061430 150.0168 210.4573 14.37548981846216 COSMOS 2493 (SKRL-756 1) 1 39490U 13078A 25340.56139620 .00006919 00000+0 54280-3 0 9996 2 39490 82.4138 89.4605 0013761 170.4690 189.6798 15.00736915649059 COSMOS 2494 (SKRL-756 2) 1 39491U 13078B 25340.56249889 .00008471 00000+0 62114-3 0 9996 2 39491 82.4140 79.6310 0017448 136.8840 223.3755 15.03271208649855